Regional Weather Roundup
Issued by NWS

Home | Current Version | Previous Version | Graphics & Text | Print | Product List | Glossary On
Versions: 1 2 3 4 5 6 7 8 9 10 11 12 13 14 15 16 17 18 19 20 21 22 23 24 25 26 27 28 29 30 31 32 33 34 35 36 37 38 39 40 41 42 43 44 45 46 47 48 49 50
945
ASUS43 KOAX 272010
RWRNE

WEATHER ROUNDUP FOR NEBRASKA
NATIONAL WEATHER SERVICE OMAHA NE
300 PM CDT MON MAR 27 2017

NOTES: SATELLITE DATA IS BEING USED TO AUGMENT CLOUD COVER ABOVE
       12000 FEET.
       "FAIR" INDICATES FEW OR NO CLOUDS BELOW 12,000 FEET WITH NO
       SIGNIFICANT WEATHER AND/OR OBSTRUCTIONS TO VISIBILITY.

  * THESE STATIONS DO NOT REPORT WEATHER SUCH AS RAIN...SNOW OR FOG.

NEZ001>004-019>022-054>056-272100-
NEBRASKA PANHANDLE

CITY           SKY/WX    TMP DP  RH WIND       PRES   REMARKS
SCOTTSBLUFF    SUNNY     66  24  20 SW12      29.82F
ALLIANCE       PTSUNNY   61  28  28 SW17      29.82F
CHADRON        MOSUNNY   62  32  32 VRB3      29.80F
KIMBALL        CLOUDY    59  33  38 E3        29.86F
SIDNEY         CLOUDY    59  30  33 SW14      29.86F
$$

NEZ057>060-069>072-079>082-272100-
SOUTHWEST NEBRASKA

CITY           SKY/WX    TMP DP  RH WIND       PRES   REMARKS
NORTH PLATTE   SUNNY     63  39  41 VRB3      29.88F
IMPERIAL       SUNNY     62  37  39 SW7       29.88F
LEXINGTON      MOSUNNY   53  44  71 E3        29.93F
MCCOOK         SUNNY     64  41  42 VRB3      29.89F
OGALLALA       SUNNY     64  36  35 CALM      29.87F
$$

NEZ005>010-023>029-035>040-094-272100-
NORTH CENTRAL NEBRASKA

CITY           SKY/WX    TMP DP  RH WIND       PRES   REMARKS
VALENTINE      SUNNY     58  38  47 SE6       29.88F
AINSWORTH      SUNNY     56  43  61 S8        29.90F
BROKEN BOW     CLOUDY    54  43  66 SE8       29.92F
O`NEILL        SUNNY     57  38  48 S3        29.93F
ORD            PTSUNNY   54  41  61 SW8       29.93F
THEDFORD       SUNNY     59  43  54 SE10      29.90F
$$

NEZ041-046>049-061>064-073>077-083>087-272100-
SOUTH CENTRAL NEBRASKA

CITY           SKY/WX    TMP DP  RH WIND       PRES   REMARKS
GRAND ISLAND   CLOUDY    50  42  74 NW5       29.96F
AURORA         CLOUDY    49  43  78 NE3       29.96F
HASTINGS       CLOUDY    48  41  76 CALM      29.98S
HEBRON         CLOUDY    48  43  82 N5        29.97F
HOLDREGE       MOSUNNY   56  42  60 CALM      29.93F
KEARNEY *      CLOUDY    54  41  62 E5        29.96F
YORK           CLOUDY    48  43  81 N5        29.97F
$$

NEZ011>018-030>034-042>045-272100-
NORTHEAST NEBRASKA

CITY           SKY/WX    TMP DP  RH WIND       PRES   REMARKS
NORFOLK        SUNNY     56  37  49 CALM      29.94F
ALBION         SUNNY     55  38  51 S3        29.94F
BLAIR          CLOUDY    49  42  75 NE7       29.96F
FREMONT        CLOUDY    50  40  69 NE5       29.97F
TEKAMAH        CLOUDY    51  40  65 NE7       29.97F
WAYNE          SUNNY     56  40  53 CALM      29.94F
$$

NEZ050>053-065>068-078-088>093-272100-
SOUTHEAST NEBRASKA

CITY           SKY/WX    TMP DP  RH WIND       PRES   REMARKS
LINCOLN        CLOUDY    53  41  63 N7        29.97F
OMAHA EPPLEY   CLOUDY    50  40  68 NE6       29.96F
BEATRICE       CLOUDY    52  44  74 N7        29.96F
FALLS CITY     CLOUDY    53  44  71 N10       29.94
NEBRASKA CITY  CLOUDY    51  40  65 NE10      29.95F
PLATTSMOUTH    CLOUDY    49  38  65 N7        29.96F
$$

NEZ044-045-051>053-067-272100-
OMAHA AREA

CITY           SKY/WX    TMP DP  RH WIND       PRES   REMARKS
OMAHA EPPLEY   CLOUDY    50  40  68 NE6       29.96F
BLAIR          CLOUDY    49  42  75 NE7       29.96F
FREMONT        CLOUDY    50  40  69 NE5       29.97F
MILLARD        CLOUDY    51  42  71 NE3       29.97F
OFFUTT AFB     CLOUDY    50  40  68 VRB7      29.96F
PLATTSMOUTH    CLOUDY    49  38  65 N7        29.96F
WAHOO          CLOUDY    51  40  66 NE6       29.96F
$$




USA.gov is the U.S. government's official web portal to all federal, state and local government web resources and services.